Track STARLINK-2506 now! 10-day predictions STARLINK-2506 is classified as:
1 48315U 21036AR 22177.32503482 -.00000545 00000-0 -17691-4 0 9993 2 48315 53.0547 42.6073 0001572 67.0006 293.1149 15.06409179 64330